"Pseudo-MPEC" for P11ksC6

Created 2021 Sep 20 16:07:08 UT using Find_Orb

Click here for an explanation of pseudo-MPECs

 
 Astrometry: 
     P11ksC6  C2021 09 08@3AstrometrytC\LBh9GVQVBw!KDtu3LVUt$1un+.B.+XZM!su#)F52
     P11ksC6  C2021 09 08ZKW5v!/Li[\D0aU_/;GQIredacted;S0)1U4+5H0m7,nG2]\o\FVF51
     P11ksC6  C2021 09 08k+e,SU`^@k:vZEe(/X@'ANWC$Slcxclickp5T0;lQa-MA,l#KwXRF52
     P11ksC6  C2021 09 08`pP^qhere.7=qV;BEforIR:)!explanationI0vU#q(w)ZpD*F(UF51
     P11ksC6  C2021 09 08Tsr%O4!N]Tiy7jHg2%A]-AAheK4G'B@yJg#x%Wg$I2[KSmPNP7lqF51
     P11ksC6 ^C2021 09 09.23822721 14 03.460-09 08 44.09   ~99G7 21.55GVNEOCP568
     P11ksC6 ^C2021 09 09.23920521 14 03.647-09 08 40.65   ~99G7 21.60GVNEOCP568
     P11ksC6 ^C2021 09 09.24019121 14 03.827-09 08 37.13   ~99G7 21.61GVNEOCP568
     P11ksC6 ^C2021 09 09.24116821 14 04.005-09 08 33.82   ~99G7 21.62GVNEOCP568

Station data:
(568) Mauna Kea  (N19.826116 W155.472200)  US/Hawaii.
(F51) Pan-STARRS 1, Haleakala  (N20.707235 W156.255910)  US/Hawaii.
   Observers N. Primak, A. Schultz, S. Watters, J. Thiel, T. Goggia. Measurer
   PS1 Science Consortium. 1.8-m Ritchey-Chrétien + CCD.
(F52) Pan-STARRS 2, Haleakala  (N20.707384 W156.255910)  US/Hawaii. 1.8-m
   Ritchey-Chrétien + CCD.

Orbital elements:  P11ksC6
   Perihelion 2021 Jul 13.147220 +/- 0.171109 TT =  3:31:59 (JD 2459408.647220)
Epoch 2021 Sep  9.0 TT = JDT 2459466.5   Earth MOID: 0.0004   Ve: 0.0034
M  65.12380269 +/- 0.3633849        Me: 0.0069                AutoNEOCP
n   1.12568146 +/- 0.00298592       Peri.  223.62773 +/- 0.0236451
a   0.91522042 +/- 0.00161841       Node   344.68939 +/- 0.0033865
e   0.6356033 +/- 0.00229942        Incl.    7.16497 +/- 0.0484703
P   0.88/319.80d           H 28.9   G  0.15   U  8.8  
q 0.33350324 +/- 0.00153116    Q 1.49693760 +/- 0.00473655
From 9 observations 2021 Sept. 8-9 (22.1 hr); mean residual 0".08
Residuals in arcseconds: 
210908 F52  .07+  .03+    210908 F51  .07+  .19+    210909 568  .02+  .01-    
210908 F51  .14-  .12-    210908 F51  .00   .06-    210909 568  .03+  .07+    
210908 F52  .01-  .04-    210909 568  .10-  .04-    210909 568  .05+  .02-    

Ephemerides (geocentric):
Date (UTC) HH   RA              Dec         delta   r     elong  mag " sig PA
---- -- -- --  -------------   -----------  ------ ------ -----  --- ---- ---
2021 09 20 16  21 24 48.149   -07 19 02.39  .15685 1.1333 143.0 26.5 22.6  52
2021 09 20 17  21 24 49.310   -07 18 57.34  .15734 1.1336 142.9 26.5 22.6  52
2021 09 20 18  21 24 50.472   -07 18 52.31  .15784 1.1340 142.9 26.5 22.6  52
2021 09 20 19  21 24 51.635   -07 18 47.29  .15833 1.1343 142.9 26.5 22.6  52
2021 09 20 20  21 24 52.798   -07 18 42.28  .15883 1.1347 142.8 26.5 22.6  52
2021 09 20 21  21 24 53.962   -07 18 37.29  .15932 1.1351 142.8 26.5 22.6  52
2021 09 20 22  21 24 55.127   -07 18 32.31  .15982 1.1354 142.7 26.5 22.7  52
2021 09 20 23  21 24 56.292   -07 18 27.35  .16031 1.1358 142.7 26.5 22.7  52
2021 09 21 00  21 24 57.459   -07 18 22.39  .16081 1.1361 142.7 26.5 22.7  52
2021 09 21 01  21 24 58.626   -07 18 17.45  .16131 1.1365 142.6 26.5 22.7  52
2021 09 21 02  21 24 59.794   -07 18 12.53  .16180 1.1368 142.6 26.5 22.7  52
2021 09 21 03  21 25 00.963   -07 18 07.61  .16230 1.1372 142.6 26.6 22.7  52
2021 09 21 04  21 25 02.133   -07 18 02.71  .16279 1.1375 142.5 26.6 22.7  52
2021 09 21 05  21 25 03.303   -07 17 57.82  .16329 1.1379 142.5 26.6 22.7  52
2021 09 21 06  21 25 04.475   -07 17 52.94  .16379 1.1382 142.5 26.6 22.7  52
2021 09 21 07  21 25 05.647   -07 17 48.07  .16428 1.1386 142.4 26.6 22.7  52
2021 09 21 08  21 25 06.821   -07 17 43.21  .16478 1.1390 142.4 26.6 22.7  52
2021 09 21 09  21 25 07.995   -07 17 38.37  .16527 1.1393 142.4 26.6 22.7  52
2021 09 21 10  21 25 09.170   -07 17 33.53  .16577 1.1397 142.3 26.6 22.7  52
2021 09 21 11  21 25 10.346   -07 17 28.71  .16627 1.1400 142.3 26.6 22.7  52
2021 09 21 12  21 25 11.523   -07 17 23.89  .16676 1.1404 142.3 26.6 22.8  52
2021 09 21 13  21 25 12.701   -07 17 19.09  .16726 1.1407 142.2 26.6 22.8  52
2021 09 21 14  21 25 13.880   -07 17 14.30  .16776 1.1411 142.2 26.6 22.8  52
2021 09 21 15  21 25 15.061   -07 17 09.52  .16825 1.1414 142.2 26.6 22.8  52
2021 09 21 16  21 25 16.242   -07 17 04.75  .16875 1.1418 142.1 26.7 22.8  52
2021 09 21 17  21 25 17.424   -07 16 59.98  .16925 1.1421 142.1 26.7 22.8  52
2021 09 21 18  21 25 18.607   -07 16 55.23  .16974 1.1425 142.1 26.7 22.8  52
2021 09 21 19  21 25 19.791   -07 16 50.49  .17024 1.1428 142.0 26.7 22.8  52
2021 09 21 20  21 25 20.976   -07 16 45.76  .17074 1.1432 142.0 26.7 22.8  52
2021 09 21 21  21 25 22.162   -07 16 41.03  .17124 1.1435 141.9 26.7 22.8  52
2021 09 21 22  21 25 23.350   -07 16 36.32  .17173 1.1439 141.9 26.7 22.8  52
2021 09 21 23  21 25 24.538   -07 16 31.61  .17223 1.1442 141.9 26.7 22.8  52
2021 09 22 00  21 25 25.728   -07 16 26.92  .17273 1.1446 141.8 26.7 22.8  52
2021 09 22 01  21 25 26.918   -07 16 22.23  .17323 1.1449 141.8 26.7 22.8  52
2021 09 22 02  21 25 28.110   -07 16 17.55  .17372 1.1453 141.8 26.7 22.8  52
2021 09 22 03  21 25 29.303   -07 16 12.88  .17422 1.1456 141.7 26.7 22.8  52
2021 09 22 04  21 25 30.497   -07 16 08.22  .17472 1.1460 141.7 26.7 22.8  52
2021 09 22 05  21 25 31.692   -07 16 03.56  .17522 1.1463 141.7 26.8 22.8  52
2021 09 22 06  21 25 32.889   -07 15 58.91  .17571 1.1467 141.6 26.8 22.9  52
2021 09 22 07  21 25 34.086   -07 15 54.28  .17621 1.1470 141.6 26.8 22.9  52
2021 09 22 08  21 25 35.285   -07 15 49.65  .17671 1.1474 141.6 26.8 22.9  52
2021 09 22 09  21 25 36.485   -07 15 45.02  .17721 1.1477 141.5 26.8 22.9  52
2021 09 22 10  21 25 37.686   -07 15 40.41  .17771 1.1481 141.5 26.8 22.9  52
2021 09 22 11  21 25 38.888   -07 15 35.80  .17820 1.1484 141.5 26.8 22.9  52
2021 09 22 12  21 25 40.091   -07 15 31.20  .17870 1.1488 141.4 26.8 22.9  52
2021 09 22 13  21 25 41.296   -07 15 26.60  .17920 1.1491 141.4 26.8 22.9  52
2021 09 22 14  21 25 42.502   -07 15 22.02  .17970 1.1495 141.4 26.8 22.9  52
2021 09 22 15  21 25 43.709   -07 15 17.44  .18020 1.1498 141.3 26.8 22.9  52